Location: Bailleul
(50.3375°N, 2.8513°E)
Time: 09:59:29
(UTC+00:00)

Cosmos 1892 - Pass Details

Date: 19 April 2021
Orbit: 502 x 524 km, 82.5° (Epoch: 05 May)

Event Time Altitude Azimuth Distance (km) Brightness Sun altitude
Rises 19:33:18 0° 346° (NNW) 2,616 7.0 -7.2°
Reaches altitude 10° 19:35:27 10° 342° (NNW) 1,727 6.1 -7.5°
Maximum altitude 19:39:09 55° 264° (W) 613 3.4 -8.0°
Drops below altitude 10° 19:42:50 10° 186° (S) 1,721 5.1 -8.5°
Sets 19:44:59 0° 182° (S) 2,604 6.0 -8.8°
